UKV1502 SGAS-SUMU

Flight info

Callsign UKV1502
Flight time 1h 30m
Altitude 38000
Route ITAPE ASATI UP526 MONSA
Aircraft A320/M-SDE3FGHIRWY/LB1

Departure

Time 2026-05-09 11:51
Airport Silvio Pettirossi International Airport (SGAS)

Arrival

Time 2026-05-09 13:21
Airport Carrasco General Cesáreo L. Berisso International Airport (SUMU)
Time Latitude Longitude Altitude Speed Heading
2026-05-09 11:34 -25.24224 -57.51634 281 ft 0 kts 78°
2026-05-09 11:36 -25.24212 -57.51614 284 ft 6 kts 38°
2026-05-09 11:36 -25.24139 -57.51611 279 ft 15 kts
2026-05-09 11:37 -25.24028 -57.51624 278 ft 17 kts 335°
2026-05-09 11:37 -25.23940 -57.51676 277 ft 12 kts 342°
2026-05-09 11:37 -25.23859 -57.51671 276 ft 12 kts 12°
2026-05-09 11:37 -25.23783 -57.51648 275 ft 11 kts 14°
2026-05-09 11:38 -25.23711 -57.51631 274 ft 10 kts 11°
2026-05-09 11:38 -25.23629 -57.51612 273 ft 15 kts 12°
2026-05-09 11:38 -25.23504 -57.51583 271 ft 21 kts 12°
2026-05-09 11:38 -25.23343 -57.51541 269 ft 27 kts 13°
2026-05-09 11:39 -25.23161 -57.51493 266 ft 23 kts 13°
2026-05-09 11:39 -25.23104 -57.51478 266 ft 0 kts 13°
2026-05-09 11:40 -25.23034 -57.51461 265 ft 27 kts 12°
2026-05-09 11:40 -25.22832 -57.51414 262 ft 31 kts 12°
2026-05-09 11:41 -25.22729 -57.51390 260 ft 0 kts 12°
2026-05-09 11:41 -25.22684 -57.51380 260 ft 28 kts 11°
2026-05-09 11:41 -25.22551 -57.51388 258 ft 12 kts 319°
2026-05-09 11:41 -25.22531 -57.51451 258 ft 0 kts 280°
2026-05-09 11:48 -25.22527 -57.51489 258 ft 6 kts 274°
2026-05-09 11:48 -25.22528 -57.51529 258 ft 4 kts 262°
2026-05-09 11:48 -25.22535 -57.51555 258 ft 2 kts 241°
2026-05-09 11:48 -25.22550 -57.51568 258 ft 5 kts 210°
2026-05-09 11:49 -25.22569 -57.51573 258 ft 0 kts 189°
2026-05-09 11:50 -25.22698 -57.51598 261 ft 55 kts 191°
2026-05-09 11:50 -25.23294 -57.51749 268 ft 118 kts 192°
2026-05-09 11:50 -25.24266 -57.51977 295 ft 165 kts 192°
2026-05-09 11:50 -25.25457 -57.52256 648 ft 185 kts 192°
2026-05-09 11:51 -25.26777 -57.52570 1134 ft 201 kts 192°
2026-05-09 11:51 -25.28198 -57.52918 1644 ft 219 kts 192°
2026-05-09 11:51 -25.29747 -57.53302 2147 ft 239 kts 193°
2026-05-09 11:51 -25.31418 -57.53718 2846 ft 250 kts 192°
2026-05-09 11:52 -25.33093 -57.54130 3862 ft 249 kts 190°
2026-05-09 11:52 -25.34800 -57.54390 4842 ft 248 kts 176°
2026-05-09 11:52 -25.36483 -57.53986 5740 ft 251 kts 156°
2026-05-09 11:52 -25.37940 -57.52893 6615 ft 258 kts 136°
2026-05-09 11:53 -25.39176 -57.51438 7480 ft 262 kts 135°
2026-05-09 11:53 -25.40434 -57.49948 8298 ft 268 kts 135°
2026-05-09 11:53 -25.41725 -57.48430 9095 ft 273 kts 135°
2026-05-09 11:53 -25.43179 -57.47057 9844 ft 278 kts 148°
2026-05-09 11:54 -25.44915 -57.46113 10521 ft 286 kts 163°
2026-05-09 11:54 -25.46883 -57.45454 10871 ft 307 kts 165°
2026-05-09 11:54 -25.49014 -57.44758 11145 ft 329 kts 166°
2026-05-09 11:54 -25.51252 -57.44027 11665 ft 342 kts 167°
2026-05-09 11:55 -25.53574 -57.43267 12214 ft 352 kts 168°
2026-05-09 11:56 -25.66005 -57.44390 15251 ft 371 kts 197°
2026-05-09 11:56 -25.68551 -57.44929 15886 ft 375 kts 197°
2026-05-09 11:56 -25.71131 -57.45475 16494 ft 379 kts 198°
2026-05-09 11:57 -25.73735 -57.46024 17079 ft 383 kts 198°
2026-05-09 11:57 -25.76372 -57.46581 17638 ft 387 kts 198°
2026-05-09 11:57 -25.78990 -57.47136 18176 ft 391 kts 198°
2026-05-09 11:57 -25.81678 -57.47705 18717 ft 395 kts 199°
2026-05-09 11:58 -25.84388 -57.48277 19271 ft 397 kts 199°
2026-05-09 11:58 -25.87112 -57.48854 19808 ft 400 kts 199°
2026-05-09 11:58 -25.89853 -57.49435 20348 ft 403 kts 199°
2026-05-09 11:58 -25.92614 -57.50020 20872 ft 405 kts 199°
2026-05-09 11:59 -25.95395 -57.50610 21381 ft 407 kts 199°
2026-05-09 11:59 -25.98187 -57.51204 21886 ft 410 kts 199°
2026-05-09 11:59 -26.00989 -57.51804 22385 ft 411 kts 199°
2026-05-09 11:59 -26.03772 -57.52402 22864 ft 413 kts 200°
2026-05-09 12:00 -26.06597 -57.53007 23350 ft 415 kts 199°
2026-05-09 12:00 -26.09501 -57.53366 23813 ft 427 kts 190°
2026-05-09 12:00 -26.12493 -57.53400 24262 ft 430 kts 189°
2026-05-09 12:00 -26.15495 -57.53425 24702 ft 433 kts 189°
2026-05-09 12:01 -26.18510 -57.53449 25108 ft 435 kts 189°
2026-05-09 12:01 -26.21546 -57.53476 25517 ft 437 kts 189°
2026-05-09 12:01 -26.24598 -57.53509 25900 ft 440 kts 189°
2026-05-09 12:01 -26.27667 -57.53545 26275 ft 443 kts 190°
2026-05-09 12:02 -26.30760 -57.53584 26641 ft 445 kts 190°
2026-05-09 12:02 -26.33866 -57.53621 26980 ft 448 kts 190°
2026-05-09 12:02 -26.36953 -57.53656 27311 ft 451 kts 190°
2026-05-09 12:02 -26.40094 -57.53691 27654 ft 453 kts 190°
2026-05-09 12:03 -26.43258 -57.53724 27996 ft 456 kts 191°
2026-05-09 12:03 -26.46436 -57.53757 28334 ft 458 kts 191°
2026-05-09 12:03 -26.49637 -57.53791 28645 ft 461 kts 191°
2026-05-09 12:03 -26.52848 -57.53824 28955 ft 463 kts 191°
2026-05-09 12:04 -26.56081 -57.53858 29270 ft 466 kts 191°
2026-05-09 12:04 -26.59328 -57.53892 29557 ft 468 kts 191°
2026-05-09 12:04 -26.62594 -57.53927 29836 ft 471 kts 191°
2026-05-09 12:04 -26.65877 -57.53963 30120 ft 473 kts 191°
2026-05-09 12:05 -26.69135 -57.53996 30393 ft 475 kts 191°
2026-05-09 12:05 -26.72446 -57.54032 30658 ft 477 kts 191°
2026-05-09 12:05 -26.75778 -57.54070 30901 ft 480 kts 191°
2026-05-09 12:05 -26.79127 -57.54107 31126 ft 483 kts 191°
2026-05-09 12:06 -26.82497 -57.54145 31333 ft 486 kts 191°
2026-05-09 12:06 -26.85873 -57.54181 31642 ft 486 kts 191°
2026-05-09 12:06 -26.89241 -57.54232 31990 ft 484 kts 192°
2026-05-09 12:06 -26.92616 -57.54314 32307 ft 484 kts 192°
2026-05-09 12:07 -26.95980 -57.54418 32630 ft 483 kts 193°
2026-05-09 12:07 -26.99299 -57.54532 32908 ft 484 kts 193°
2026-05-09 12:07 -27.02667 -57.54652 33189 ft 485 kts 193°
2026-05-09 12:07 -27.06038 -57.54769 33470 ft 486 kts 193°
2026-05-09 12:08 -27.09417 -57.54877 33782 ft 485 kts 193°
2026-05-09 12:08 -27.12796 -57.54975 34084 ft 486 kts 193°
2026-05-09 12:08 -27.16174 -57.55067 34361 ft 486 kts 193°
2026-05-09 12:08 -27.19560 -57.55159 34658 ft 486 kts 193°
2026-05-09 12:09 -27.22938 -57.55252 34949 ft 486 kts 193°
2026-05-09 12:09 -27.26274 -57.55346 35231 ft 485 kts 193°
2026-05-09 12:09 -27.29642 -57.55443 35510 ft 485 kts 193°
2026-05-09 12:10 -27.39723 -57.55743 36317 ft 482 kts 193°
2026-05-09 12:10 -27.43072 -57.55845 36541 ft 481 kts 193°
2026-05-09 12:10 -27.46418 -57.55958 36775 ft 480 kts 193°
2026-05-09 12:11 -27.49739 -57.56084 37126 ft 476 kts 194°
2026-05-09 12:11 -27.53040 -57.56219 37440 ft 473 kts 194°
2026-05-09 12:11 -27.56322 -57.56364 37666 ft 471 kts 194°
2026-05-09 12:11 -27.59593 -57.56511 37853 ft 471 kts 194°
2026-05-09 12:12 -27.62865 -57.56658 38042 ft 471 kts 194°
2026-05-09 12:12 -27.69412 -57.56934 38104 ft 470 kts 194°
2026-05-09 12:13 -27.75916 -57.57204 38108 ft 470 kts 194°
2026-05-09 12:13 -27.82458 -57.57467 38109 ft 470 kts 194°
2026-05-09 12:14 -27.88998 -57.57738 38119 ft 470 kts 194°
2026-05-09 12:14 -27.95540 -57.58005 38134 ft 471 kts 194°
2026-05-09 12:15 -28.02092 -57.58273 38186 ft 471 kts 194°
2026-05-09 12:15 -28.08604 -57.58552 38200 ft 472 kts 194°
2026-05-09 12:16 -28.15208 -57.58831 38207 ft 472 kts 194°
2026-05-09 12:16 -28.21724 -57.59097 38210 ft 472 kts 194°
2026-05-09 12:17 -28.28305 -57.59271 38218 ft 474 kts 193°
2026-05-09 12:17 -28.34897 -57.59395 38224 ft 474 kts 193°
2026-05-09 12:18 -28.41497 -57.59525 38219 ft 474 kts 193°
2026-05-09 12:18 -28.48079 -57.59682 38219 ft 473 kts 193°
2026-05-09 12:19 -28.54672 -57.59849 38218 ft 473 kts 193°
2026-05-09 12:19 -28.61264 -57.60005 38212 ft 474 kts 193°
2026-05-09 12:20 -28.67862 -57.60153 38210 ft 475 kts 193°
2026-05-09 12:20 -28.74421 -57.60314 38210 ft 475 kts 193°
2026-05-09 12:21 -28.81032 -57.60478 38214 ft 475 kts 193°
2026-05-09 12:21 -28.87644 -57.60628 38213 ft 475 kts 193°
2026-05-09 12:22 -28.94255 -57.60773 38218 ft 475 kts 193°
2026-05-09 12:22 -29.00826 -57.60934 38214 ft 475 kts 193°
2026-05-09 12:23 -29.07436 -57.61093 38206 ft 476 kts 192°
2026-05-09 12:23 -29.14081 -57.61252 38181 ft 478 kts 192°
2026-05-09 12:24 -29.20740 -57.61424 38180 ft 480 kts 192°
2026-05-09 12:24 -29.27433 -57.61584 38185 ft 481 kts 192°
2026-05-09 12:25 -29.34130 -57.61721 38188 ft 481 kts 191°
2026-05-09 12:25 -29.40827 -57.61868 38189 ft 481 kts 192°
2026-05-09 12:26 -29.47525 -57.62025 38193 ft 481 kts 191°
2026-05-09 12:26 -29.54175 -57.62181 38195 ft 481 kts 191°
2026-05-09 12:27 -29.60867 -57.62334 38197 ft 481 kts 191°
2026-05-09 12:27 -29.67565 -57.62485 38198 ft 481 kts 191°
2026-05-09 12:28 -29.74262 -57.62634 38200 ft 481 kts 191°
2026-05-09 12:28 -29.80956 -57.62785 38198 ft 481 kts 191°
2026-05-09 12:29 -29.87657 -57.62934 38202 ft 481 kts 191°
2026-05-09 12:29 -29.94308 -57.63088 38204 ft 481 kts 191°
2026-05-09 12:30 -30.00993 -57.63242 38205 ft 481 kts 191°
2026-05-09 12:30 -30.11031 -57.63476 38200 ft 481 kts 191°
2026-05-09 12:31 -30.21054 -57.63708 38194 ft 480 kts 191°
2026-05-09 12:32 -30.27775 -57.63273 38187 ft 494 kts 176°
2026-05-09 12:32 -30.34416 -57.61077 38181 ft 502 kts 170°
2026-05-09 12:33 -30.41081 -57.58682 38172 ft 502 kts 170°
2026-05-09 12:33 -30.47766 -57.56292 38169 ft 502 kts 170°
2026-05-09 12:34 -30.54443 -57.53898 38168 ft 503 kts 169°
2026-05-09 12:34 -30.61132 -57.51494 38170 ft 502 kts 169°
2026-05-09 12:35 -30.67806 -57.49094 38161 ft 502 kts 169°
2026-05-09 12:35 -30.74432 -57.46717 38156 ft 501 kts 169°
2026-05-09 12:36 -30.81086 -57.44311 38160 ft 501 kts 169°
2026-05-09 12:36 -30.87741 -57.41902 38151 ft 500 kts 169°
2026-05-09 12:37 -30.94385 -57.39496 38151 ft 500 kts 169°
2026-05-09 12:37 -31.01019 -57.37093 38151 ft 498 kts 169°
2026-05-09 12:38 -31.07634 -57.34694 38150 ft 497 kts 169°
2026-05-09 12:38 -31.14240 -57.32304 38137 ft 497 kts 169°
2026-05-09 12:39 -31.20804 -57.29930 38139 ft 496 kts 168°
2026-05-09 12:39 -31.27379 -57.27537 38136 ft 496 kts 169°
2026-05-09 12:40 -31.33966 -57.25135 38137 ft 495 kts 168°
2026-05-09 12:40 -31.40488 -57.22751 38132 ft 494 kts 168°
2026-05-09 12:41 -31.47051 -57.20361 38132 ft 494 kts 168°
2026-05-09 12:41 -31.53605 -57.17958 38123 ft 493 kts 168°
2026-05-09 12:42 -31.60143 -57.15560 38117 ft 492 kts 168°
2026-05-09 12:42 -31.66687 -57.13161 38112 ft 492 kts 168°
2026-05-09 12:43 -31.73210 -57.10759 38108 ft 491 kts 168°
2026-05-09 12:43 -31.79694 -57.08369 38106 ft 491 kts 168°
2026-05-09 12:44 -31.86206 -57.05921 38095 ft 491 kts 167°
2026-05-09 12:44 -31.92715 -57.03445 38089 ft 491 kts 168°
2026-05-09 12:45 -31.99232 -57.01018 38085 ft 491 kts 168°
2026-05-09 12:45 -32.05746 -56.98617 38090 ft 490 kts 167°
2026-05-09 12:46 -32.12208 -56.96232 38101 ft 489 kts 167°
2026-05-09 12:46 -32.18681 -56.93821 38100 ft 487 kts 167°
2026-05-09 12:47 -32.25134 -56.91399 38096 ft 486 kts 167°
2026-05-09 12:47 -32.31581 -56.88986 38091 ft 486 kts 167°
2026-05-09 12:48 -32.38031 -56.86574 38089 ft 486 kts 167°
2026-05-09 12:48 -32.44473 -56.84160 38077 ft 485 kts 167°
2026-05-09 12:49 -32.50860 -56.81768 38071 ft 484 kts 167°
2026-05-09 12:49 -32.57276 -56.79358 38067 ft 484 kts 167°
2026-05-09 12:50 -32.62701 -56.77318 38064 ft 484 kts 167°
2026-05-09 12:50 -32.69111 -56.74900 38058 ft 483 kts 167°
2026-05-09 12:51 -32.75518 -56.72474 38057 ft 483 kts 167°
2026-05-09 12:51 -32.81923 -56.70052 38052 ft 483 kts 167°
2026-05-09 12:52 -32.88272 -56.67641 38050 ft 482 kts 166°
2026-05-09 12:52 -32.94651 -56.65217 37972 ft 480 kts 166°
2026-05-09 12:52 -32.97832 -56.64007 37457 ft 478 kts 166°
2026-05-09 12:53 -33.00992 -56.62805 36879 ft 477 kts 166°
2026-05-09 12:53 -33.04148 -56.61605 36316 ft 475 kts 166°
2026-05-09 12:53 -33.07287 -56.60412 35710 ft 474 kts 166°
2026-05-09 12:53 -33.10431 -56.59213 34976 ft 476 kts 166°
2026-05-09 12:54 -33.13576 -56.58010 34476 ft 471 kts 166°
2026-05-09 12:54 -33.16633 -56.56840 34021 ft 466 kts 166°
2026-05-09 12:54 -33.19707 -56.55666 33571 ft 461 kts 166°
2026-05-09 12:54 -33.22741 -56.54506 33116 ft 455 kts 166°
2026-05-09 12:55 -33.25741 -56.53360 32664 ft 450 kts 166°
2026-05-09 12:55 -33.28698 -56.52233 32227 ft 445 kts 165°
2026-05-09 12:55 -33.31625 -56.51119 31797 ft 439 kts 165°
2026-05-09 12:55 -33.34525 -56.50015 31368 ft 434 kts 165°
2026-05-09 12:56 -33.37386 -56.48962 30949 ft 427 kts 166°
2026-05-09 12:56 -33.40237 -56.48016 30534 ft 421 kts 167°
2026-05-09 12:56 -33.43016 -56.47161 30133 ft 416 kts 168°
2026-05-09 12:56 -33.45804 -56.46331 29722 ft 410 kts 168°
2026-05-09 12:57 -33.48551 -56.45516 29300 ft 405 kts 167°
2026-05-09 12:57 -33.51273 -56.44694 28855 ft 400 kts 167°
2026-05-09 12:57 -33.53954 -56.43866 28399 ft 396 kts 166°
2026-05-09 12:57 -33.56611 -56.43031 27890 ft 394 kts 166°
2026-05-09 12:58 -33.59258 -56.42192 27339 ft 392 kts 166°
2026-05-09 12:58 -33.61889 -56.41358 26789 ft 390 kts 166°
2026-05-09 12:58 -33.64472 -56.40540 26245 ft 388 kts 166°
2026-05-09 12:58 -33.67074 -56.39717 25688 ft 386 kts 166°
2026-05-09 12:59 -33.69645 -56.38905 25146 ft 383 kts 165°
2026-05-09 12:59 -33.72232 -56.38089 24579 ft 381 kts 165°
2026-05-09 12:59 -33.74778 -56.37286 24042 ft 379 kts 165°
2026-05-09 12:59 -33.76933 -56.36606 23574 ft 376 kts 165°
2026-05-09 13:00 -33.79503 -56.35793 23012 ft 374 kts 165°
2026-05-09 13:00 -33.82008 -56.34997 22462 ft 372 kts 165°
2026-05-09 13:00 -33.84506 -56.34206 21910 ft 369 kts 165°
2026-05-09 13:00 -33.86950 -56.33432 21367 ft 368 kts 166°
2026-05-09 13:01 -33.89416 -56.32648 20815 ft 366 kts 166°
2026-05-09 13:01 -33.91871 -56.31866 20264 ft 363 kts 166°
2026-05-09 13:01 -33.94288 -56.31095 19702 ft 353 kts 166°
2026-05-09 13:01 -33.96615 -56.30352 19152 ft 340 kts 166°
2026-05-09 13:02 -33.97378 -56.30109 18967 ft 336 kts 166°
2026-05-09 13:02 -33.98185 -56.29852 18771 ft 332 kts 167°
2026-05-09 13:03 -34.00379 -56.29154 18222 ft 321 kts 167°
2026-05-09 13:03 -34.02518 -56.28477 17671 ft 315 kts 167°
2026-05-09 13:03 -34.04621 -56.27810 17116 ft 311 kts 167°
2026-05-09 13:03 -34.06708 -56.27148 16561 ft 309 kts 167°
2026-05-09 13:04 -34.08779 -56.26488 16011 ft 307 kts 168°
2026-05-09 13:04 -34.10838 -56.25831 15461 ft 306 kts 168°
2026-05-09 13:04 -34.12896 -56.25173 14908 ft 305 kts 168°
2026-05-09 13:04 -34.14942 -56.24517 14357 ft 304 kts 169°
2026-05-09 13:05 -34.16985 -56.23863 13805 ft 307 kts 169°
2026-05-09 13:05 -34.19037 -56.23209 13262 ft 311 kts 170°
2026-05-09 13:05 -34.21135 -56.22544 12710 ft 314 kts 170°
2026-05-09 13:05 -34.23256 -56.21868 12167 ft 317 kts 171°
2026-05-09 13:06 -34.25395 -56.21198 11604 ft 319 kts 171°
2026-05-09 13:06 -34.27546 -56.20514 11056 ft 321 kts 171°
2026-05-09 13:06 -34.29712 -56.19822 10503 ft 322 kts 171°
2026-05-09 13:06 -34.31881 -56.19132 9950 ft 323 kts 171°
2026-05-09 13:07 -34.34048 -56.18448 9396 ft 319 kts 171°
2026-05-09 13:07 -34.36131 -56.17788 8851 ft 307 kts 171°
2026-05-09 13:07 -34.38140 -56.17139 8492 ft 290 kts 171°
2026-05-09 13:07 -34.40023 -56.16515 8194 ft 273 kts 171°
2026-05-09 13:08 -34.41809 -56.15903 7893 ft 261 kts 171°
2026-05-09 13:08 -34.43540 -56.15301 7594 ft 257 kts 171°
2026-05-09 13:08 -34.45248 -56.14704 7293 ft 254 kts 171°
2026-05-09 13:08 -34.46935 -56.14109 6996 ft 249 kts 171°
2026-05-09 13:09 -34.48581 -56.13519 6718 ft 245 kts 171°
2026-05-09 13:09 -34.50151 -56.12701 6463 ft 252 kts 150°
2026-05-09 13:09 -34.51294 -56.11031 6213 ft 265 kts 125°
2026-05-09 13:09 -34.52120 -56.09010 5978 ft 288 kts 121°
2026-05-09 13:10 -34.53031 -56.06621 5716 ft 328 kts 120°
2026-05-09 13:10 -34.54045 -56.03977 5466 ft 362 kts 120°
2026-05-09 13:10 -34.55117 -56.01198 5674 ft 357 kts 118°
2026-05-09 13:10 -34.56041 -55.98509 5688 ft 335 kts 117°
2026-05-09 13:11 -34.56891 -55.95945 5562 ft 321 kts 116°
2026-05-09 13:11 -34.57702 -55.93484 5436 ft 307 kts 117°
2026-05-09 13:11 -34.58474 -55.91133 5310 ft 294 kts 117°
2026-05-09 13:11 -34.59194 -55.88900 5190 ft 282 kts 116°
2026-05-09 13:12 -34.59891 -55.86726 5057 ft 271 kts 116°
2026-05-09 13:12 -34.60564 -55.84638 4933 ft 261 kts 117°
2026-05-09 13:12 -34.61209 -55.82624 4811 ft 251 kts 116°
2026-05-09 13:12 -34.61895 -55.80732 4676 ft 238 kts 126°
2026-05-09 13:13 -34.62906 -55.79285 4556 ft 216 kts 150°
2026-05-09 13:13 -34.64138 -55.78368 4372 ft 201 kts 168°
2026-05-09 13:13 -34.65446 -55.77938 4173 ft 189 kts 184°
2026-05-09 13:13 -34.66697 -55.77947 4042 ft 176 kts 198°
2026-05-09 13:14 -34.67858 -55.78320 3807 ft 170 kts 211°
2026-05-09 13:14 -34.68874 -55.79014 3554 ft 167 kts 224°
2026-05-09 13:16 -34.73538 -55.86215 2985 ft 141 kts 239°
2026-05-09 13:16 -34.74115 -55.87160 2875 ft 138 kts 239°
2026-05-09 13:16 -34.74685 -55.88092 2723 ft 138 kts 239°
2026-05-09 13:16 -34.75263 -55.89037 2555 ft 140 kts 239°
2026-05-09 13:17 -34.75847 -55.89992 2374 ft 142 kts 238°
2026-05-09 13:17 -34.76437 -55.90956 2190 ft 143 kts 239°
2026-05-09 13:17 -34.77034 -55.91934 1997 ft 144 kts 238°
2026-05-09 13:17 -34.77616 -55.92882 1842 ft 138 kts 238°
2026-05-09 13:18 -34.78169 -55.93787 1637 ft 130 kts 238°
2026-05-09 13:18 -34.78698 -55.94652 1460 ft 125 kts 238°
2026-05-09 13:18 -34.79216 -55.95502 1300 ft 126 kts 237°
2026-05-09 13:18 -34.79738 -55.96360 1136 ft 126 kts 237°
2026-05-09 13:19 -34.80262 -55.97215 968 ft 126 kts 236°
2026-05-09 13:19 -34.80785 -55.98071 805 ft 127 kts 237°
2026-05-09 13:19 -34.81315 -55.98940 633 ft 128 kts 237°
2026-05-09 13:19 -34.81839 -55.99799 462 ft 126 kts 237°
2026-05-09 13:20 -34.82363 -56.00658 295 ft 127 kts 236°
2026-05-09 13:20 -34.82886 -56.01516 126 ft 128 kts 236°
2026-05-09 13:20 -34.83375 -56.02347 90 ft 105 kts 233°
2026-05-09 13:20 -34.83758 -56.02953 74 ft 78 kts 232°
2026-05-09 13:21 -34.84007 -56.03366 72 ft 50 kts 233°
2026-05-09 13:21 -34.84189 -56.03660 69 ft 36 kts 232°
2026-05-09 13:21 -34.84327 -56.03875 65 ft 31 kts 231°
2026-05-09 13:21 -34.84442 -56.03941 63 ft 8 kts 133°
2026-05-09 13:22 -34.84406 -56.03902 64 ft 17 kts 19°
2026-05-09 13:22 -34.84301 -56.03826 65 ft 18 kts 56°
2026-05-09 13:22 -34.84230 -56.03701 68 ft 18 kts 56°
2026-05-09 13:23 -34.84208 -56.03517 69 ft 10 kts 57°
2026-05-09 13:24 -34.84192 -56.03484 69 ft 12 kts 59°
2026-05-09 13:24 -34.84144 -56.03385 70 ft 15 kts 60°
2026-05-09 13:24 -34.84084 -56.03258 72 ft 19 kts 60°
2026-05-09 13:24 -34.84022 -56.03095 71 ft 24 kts 70°
2026-05-09 13:25 -34.84008 -56.02884 72 ft 24 kts 94°
2026-05-09 13:25 -34.83982 -56.02755 74 ft 12 kts 57°
2026-05-09 13:25 -34.83998 -56.02585 76 ft 8 kts 92°
2026-05-09 13:26 -34.83993 -56.02497 77 ft 12 kts 91°
2026-05-09 13:26 -34.84035 -56.02448 76 ft 8 kts 172°
2026-05-09 13:26 -34.84082 -56.02438 69 ft 6 kts 153°
2026-05-09 13:26 -34.84096 -56.02417 76 ft 0 kts 118°
2026-05-09 13:27 -34.84097 -56.02417 70 ft 2 kts 120°
2026-05-09 13:27 -34.84113 -56.02412 76 ft 0 kts 185°
2026-05-09 13:27 -34.84121 -56.02412 76 ft 0 kts 180°